Station CHTS1 - 8665530 - Charleston, Cooper River Entrance, SC Image indicating link to RSS feed of recent meteorological observations for station CHTS1


Conditions at CHTS1 as of
(10:30 pm EDT on 04/18/2024)
0230 GMT on 04/19/2024:
     

Click on the graph icon in the table below to see a time series plot of the last five days of that observation.

5-day plot - Wind Direction Wind Direction (WDIR):WSW ( 250 deg true )
5-day plot - Wind Speed Wind Speed (WSPD): 5.1 kts
5-day plot - Wind Gust Wind Gust (GST): 8.9 kts
5-day plot - Atmospheric Pressure Atmospheric Pressure (PRES):30.06 in
5-day plot - Air Temperature Air Temperature (ATMP): 70.9 °F
5-day plot - Water Temperature Water Temperature (WTMP): 69.8 °F
5-day plot - Wind Speed at 10 Meters Wind Speed at 10 meters (WSPD10M): 5.8 kts
5-day plot - Wind Speed at 20 Meters Wind Speed at 20 meters (WSPD20M): 5.8 kts
5-day plot -  Wind Speed, Wind Gust and Atmospheric Pressure Combined plot of Wind Speed, Gust, and Air Pressure
NOS Water Level Observation Network Water Level
Previous observations
TIME
(EDT)
5-day plot - Wind Direction
WDIR
 
5-day plot - Wind Speed
WSPD
kts
5-day plot - Wind Gust
GST
kts
5-day plot - Wave Height
WVHT
ft
5-day plot - Dominant Wave Period
DPD
sec
5-day plot - Average Wave Period
APD
sec
5-day plot - Mean Wave Direction
MWD
 
5-day plot - Atmospheric Pressure
PRES
in
5-day plot - Pressure Tendency
PTDY
in
5-day plot - Air Temperature
ATMP
°F
5-day plot - Water Temperature
WTMP
°F
5-day plot - Dew Point
DEWP
°F
5-day plot - Salinity
SAL
psu
5-day plot - Visibility
VIS
nmi
5-day plot - Tide (above MLLW)
TIDE
ft
2024-04-18 10:24 pmWSW 6.0 8.9----30.06- 71.1 69.4----
2024-04-18 10:18 pmWSW 6.0 8.0----30.06- 71.1 69.8----
2024-04-18 10:12 pmWSW 6.0 8.0----30.05- 71.1 69.6----
2024-04-18 10:06 pmWSW 6.0 7.0----30.05- 71.2 69.6----
2024-04-18 10:00 pmWSW 5.1 7.0----30.05+0.04 71.2 69.6----
2024-04-18 09:54 pmWSW 5.1 7.0----30.05- 71.4 69.4----
2024-04-18 09:48 pmWSW 5.1 7.0----30.05- 71.6 69.3----
2024-04-18 09:42 pm SW 5.1 7.0----30.05- 71.8 69.3----
2024-04-18 09:36 pm SW 5.1 7.0----30.04- 71.8 69.1----
2024-04-18 09:30 pmWSW 5.1 7.0----30.04- 71.6 69.1----
2024-04-18 09:24 pmWSW 5.1 6.0----30.04- 71.8 68.9----
2024-04-18 09:18 pm SW 4.1 7.0----30.03- 71.8 68.7----
2024-04-18 09:12 pm SW 5.1 8.0----30.03- 72.0 68.7----
2024-04-18 09:06 pmWSW 4.1 5.1----30.03- 72.1 68.4----
2024-04-18 09:00 pmWSW 4.1 8.0----30.03+0.04 72.1 68.4----
2024-04-18 08:54 pm SW 5.1 7.0----30.03- 72.3 68.0----
2024-04-18 08:48 pm SW 6.0 8.9----30.03- 72.3 68.0----
2024-04-18 08:42 pm SW 7.0 8.9----30.02- 72.5 68.4----
2024-04-18 08:36 pm SW 7.0 8.9----30.02- 72.7 68.7----
2024-04-18 08:30 pm SW 5.1 7.0----30.02- 72.7 68.5----
2024-04-18 08:24 pm SW 7.0 8.0----30.02- 72.9 68.4----
2024-04-18 08:18 pm SW 6.0 9.9----30.02- 73.0 68.9----
2024-04-18 08:12 pm SW 6.0 9.9----30.01- 73.2 68.9----
2024-04-18 08:06 pmSSW 5.1 8.0----30.01- 73.4 68.2----
2024-04-18 08:00 pm SW 7.0 8.9----30.01+0.01 73.8 68.9----
2024-04-18 07:54 pmSSW 6.0 8.0----30.01- 73.6 68.9----
2024-04-18 07:48 pm SW 6.0 8.9----30.01- 74.1 69.1----
2024-04-18 07:42 pm SW 6.0 9.9----30.01- 74.5 68.9----
2024-04-18 07:36 pm SW 6.0 8.9----30.01- 74.7 68.9----
2024-04-18 07:30 pm SW 5.1 8.0----30.01- 74.7 68.4----
2024-04-18 07:24 pm SW 4.1 7.0----30.01- 75.0 68.2----
2024-04-18 07:00 pmSSW 9.9 14.0----30.01+0.00 75.4 67.5----
2024-04-18 06:54 pmSSW 11.1 15.0----30.01- 75.7 67.5----
2024-04-18 06:48 pmSSW 12.0 15.0----30.00- 75.7 67.5----
2024-04-18 06:42 pmSSW 11.1 15.0----30.00- 76.5 67.5----
2024-04-18 06:36 pm SW 9.9 13.0----30.00- 76.8 67.5----
2024-04-18 06:30 pm SW 8.0 12.0----30.00- 76.6 67.5----
2024-04-18 06:24 pmSSW 8.9 11.1----30.00- 76.3 67.5----
2024-04-18 06:18 pmSSW 8.0 11.1----30.00- 76.8 67.8----
2024-04-18 06:12 pmSSW 8.9 14.0----30.00- 77.0 67.8----
2024-04-18 06:06 pmSSW 12.0 14.0----30.00- 77.0 68.0----
2024-04-18 06:00 pmSSW 11.1 12.0----30.00-0.03- 68.4----
2024-04-18 05:54 pmSSW 11.1 13.0----30.00-- 68.4----
2024-04-18 05:48 pmSSW 9.9 13.0----30.00- 77.5 68.5----
2024-04-18 05:42 pmSSW 12.0 15.0----30.00- 77.5 68.5----
2024-04-18 05:36 pmSSW 7.0 9.9----30.00- 76.8 68.5----
2024-04-18 05:30 pm S 11.1 13.0----30.00- 77.2 68.5----
2024-04-18 05:24 pm S 12.0 14.0----30.00- 77.4 68.5----
2024-04-18 05:18 pm S 12.0 14.0----30.00- 77.2 68.5----
2024-04-18 05:12 pm S 12.0 13.0----30.00- 77.0 68.7----
2024-04-18 05:06 pm S 8.9 12.0----30.00- 77.4 68.7----
2024-04-18 05:00 pm S 12.0 13.0----30.00-0.05 77.0 68.5----
2024-04-18 04:54 pm S 11.1 12.0----30.01- 77.4 68.5----
2024-04-18 04:48 pmSSW 9.9 13.0----30.01- 77.2 68.4----
2024-04-18 04:42 pm S 12.0 13.0----30.01- 76.5 68.4----
2024-04-18 04:36 pm S 11.1 14.0----30.01- 76.6 68.4----
2024-04-18 04:30 pm S 12.0 14.0----30.01- 77.4 68.4----
2024-04-18 04:24 pm S 12.0 13.0----30.01- 77.5 68.4----
2024-04-18 04:18 pm S 12.0 13.0----30.01- 77.0 68.7----
2024-04-18 04:12 pm S 11.1 13.0----30.01- 77.5 68.7----
2024-04-18 04:06 pm S 12.0 13.0----30.01- 77.2 69.8----
2024-04-18 04:00 pmSSW 9.9 14.0----30.01-0.05 77.9 70.0----
2024-04-18 03:54 pm S 12.0 13.0----30.01- 78.1 69.8----
2024-04-18 03:48 pm S 11.1 13.0----30.01- 77.4 68.7----
2024-04-18 03:42 pmSSW 12.0 14.0----30.01- 77.7 68.2----
2024-04-18 03:36 pm S 8.9 13.0----30.02- 76.8 68.2----
2024-04-18 03:30 pm S 13.0 14.0----30.02- 76.1 68.2----
2024-04-18 03:24 pm S 12.0 14.0----30.02- 76.1 68.4----
2024-04-18 03:18 pm S 11.1 12.0----30.02- 76.3 68.5----
2024-04-18 03:12 pm S 9.9 13.0----30.03- 76.1 68.9----
2024-04-18 03:06 pm S 12.0 13.0----30.03- 76.5 69.3----
2024-04-18 03:00 pm S 12.0 15.0----30.03-0.06 76.1 69.4----
2024-04-18 02:54 pm S 14.0 15.0----30.03- 76.1 69.4----
2024-04-18 02:48 pm S 11.1 13.0----30.03- 75.6 69.1----
2024-04-18 02:42 pm S 12.0 14.0----30.03- 75.7 69.1----
2024-04-18 02:36 pmSSE 13.0 15.0----30.03- 75.4 68.9----
2024-04-18 02:30 pmSSE 12.0 13.0----30.04- 75.4 68.7----
2024-04-18 02:24 pmSSE 12.0 13.0----30.04- 76.1 68.7----
2024-04-18 02:18 pmSSE 9.9 13.0----30.04- 75.7 68.5----
2024-04-18 02:12 pmSSE 12.0 13.0----30.04- 76.5 68.4----
2024-04-18 02:06 pmSSE 11.1 12.0----30.04- 75.7 68.4----
2024-04-18 02:00 pmSSE 8.9 11.1----30.05-0.05 75.9 68.4----
2024-04-18 01:54 pmSSE 8.9 11.1----30.05- 76.3 68.4----
2024-04-18 01:48 pmSSE 9.9 13.0----30.05- 76.5 68.2----
2024-04-18 01:42 pmSSE 11.1 12.0----30.05- 76.1 68.0----
2024-04-18 01:36 pm S 8.0 11.1----30.05- 76.1 67.8----
2024-04-18 01:30 pmSSE 8.0 12.0----30.05- 76.1 67.8----
2024-04-18 01:24 pm S 11.1 13.0----30.06- 75.6 68.0----
2024-04-18 01:18 pmSSE 12.0 12.0----30.05- 75.9 69.3----
2024-04-18 01:12 pmSSE 11.1 13.0----30.06- 75.6 69.4----
2024-04-18 01:06 pm S 11.1 12.0----30.06- 77.4 69.6----
2024-04-18 01:00 pm S 12.0 13.0----30.06-0.04 77.0 69.4----
2024-04-18 12:54 pm S 9.9 11.1----30.06- 77.4 69.4----
2024-04-18 12:48 pm S 7.0 8.9----30.06- 77.9 69.6----
2024-04-18 12:42 pm S 7.0 8.0----30.07- 77.2 69.6----
2024-04-18 12:36 pm S 7.0 8.9----30.07- 77.7 69.4----
2024-04-18 12:30 pm S 7.0 8.9----30.07- 77.7 69.4----
2024-04-18 12:24 pm S 5.1 7.0----30.08- 76.6 69.1----
2024-04-18 12:18 pm S 7.0 8.9----30.08- 76.8 68.7----
2024-04-18 12:12 pm S 8.0 8.9----30.08- 75.7 68.7----
2024-04-18 12:06 pm S 7.0 8.0----30.09- 76.1 68.5----
2024-04-18 12:00 pm S 8.0 8.9----30.09-0.01 75.7 68.5----
2024-04-18 11:54 am S 7.0 7.0----30.09- 75.0 69.3----
2024-04-18 11:48 amSSE 5.1 5.1----30.09- 74.3 69.4----
2024-04-18 11:42 am SE 4.1 5.1----30.09- 74.3 69.4----
2024-04-18 11:36 amESE 2.9 4.1----30.09- 74.5 69.1----
2024-04-18 11:30 amESE 4.1 4.1----30.09- 74.5 68.7----
2024-04-18 11:24 am E 4.1 6.0----30.10- 73.8 69.1----
2024-04-18 11:18 am E 6.0 7.0----30.10- 72.3 69.3----
2024-04-18 11:12 amESE 6.0 6.0----30.10- 72.0 69.1----
2024-04-18 11:06 amESE 5.1 6.0----30.10- 71.8 68.9----
2024-04-18 11:00 amESE 5.1 6.0----30.10+0.00 71.8 68.7----
2024-04-18 10:54 am E 6.0 6.0----30.10- 72.7 68.4----
2024-04-18 10:48 amESE 5.1 6.0------------
2024-04-18 10:42 am E 5.1 6.0------------
2024-04-18 10:36 amSSE 4.1 5.1------------
2024-04-18 10:30 amSSE 5.1 5.1----30.10- 73.2 68.5----
2024-04-18 10:24 am S 5.1 6.0----30.10- 73.4 68.4----
2024-04-18 10:18 am S 4.1 5.1----30.10- 73.6 68.4----
2024-04-18 10:12 am S 4.1 5.1----30.10- 73.0 68.4----
2024-04-18 10:06 am S 5.1 7.0----30.10- 72.7 68.2----
2024-04-18 10:00 am S 4.1 6.0----30.10+0.00 73.0 68.2----
2024-04-18 09:54 amSSW 5.1 7.0----30.10- 73.0 68.2----
2024-04-18 09:48 amSSW 6.0 8.0----30.10- 72.7 68.2----
2024-04-18 09:42 amSSW 5.1 6.0----30.10- 72.5 67.8----
2024-04-18 09:36 amSSW 4.1 5.1----30.10- 72.3 67.8----
2024-04-18 09:30 amSSW 4.1 6.0----30.10- 72.0 68.0----
2024-04-18 09:24 amSSW 2.9 5.1----30.10- 72.0 68.0----
2024-04-18 09:18 am S 4.1 6.0----30.10- 71.6 68.0----
2024-04-18 09:12 amSSW 5.1 6.0----30.10- 71.6 68.0----
2024-04-18 09:06 am S 4.1 7.0----30.10- 71.2 68.0----
2024-04-18 09:00 am S 4.1 5.1----30.10+0.02 71.2 68.0----
2024-04-18 08:54 am S 2.9 5.1----30.10- 71.2 67.8----
2024-04-18 08:48 amSSW 2.9 5.1----30.10- 71.1 67.8----
2024-04-18 08:42 amSSW 4.1 6.0----30.10- 70.5 67.8----
2024-04-18 08:36 amSSW 2.9 5.1----30.11- 70.2 67.8----
2024-04-18 08:30 amSSW 4.1 6.0----30.10- 69.6 67.6----
2024-04-18 08:24 amSSW 5.1 6.0----30.10- 68.9 67.6----
2024-04-18 08:18 amSSW 4.1 5.1----30.10- 68.4 67.6----
2024-04-18 08:12 am S 4.1 5.1----30.10- 68.2 67.5----
2024-04-18 08:06 am S 4.1 4.1----30.11- 68.2 67.6----
2024-04-18 08:00 am S 2.9 2.9----30.11+0.04 68.2 67.6----
2024-04-18 07:54 amSSW 2.9 4.1----30.11- 68.4 67.6----
2024-04-18 07:48 amSSW 2.9 4.1----30.10- 68.5 67.6----
2024-04-18 07:42 amSSW 1.9 2.9----30.10- 68.7 67.8----
2024-04-18 07:36 am SW 1.0 1.9----30.10- 69.4 67.8----
2024-04-18 07:30 am- 0.0 1.9----30.10- 68.9 67.8----
2024-04-18 07:24 am SW 1.9 4.1----30.10- 68.0 67.8----
2024-04-18 07:18 amWSW 2.9 4.1----30.10- 68.0 67.8----
2024-04-18 07:12 am W 1.9 2.9----30.10- 67.8 67.6----
2024-04-18 07:06 am SW 2.9 4.1----30.09- 67.8 67.5----
2024-04-18 07:00 amWSW 2.9 4.1----30.10+0.05 68.0 67.6----
2024-04-18 06:54 amWNW 2.9 4.1----30.10- 67.8 67.6----
2024-04-18 06:48 am W 1.9 4.1----30.09- 68.0 67.6----
2024-04-18 06:42 amWSW 2.9 4.1----30.09- 68.0 67.5----
2024-04-18 06:36 am W 4.1 5.1----30.09- 68.2 67.5----
2024-04-18 06:30 am W 4.1 5.1----30.09- 68.4 67.5----
2024-04-18 06:24 am W 1.9 6.0----30.09- 68.5 67.3----
2024-04-18 06:18 am W 4.1 5.1----30.09- 68.5 67.1----
2024-04-18 06:12 am W 2.9 5.1----30.09- 68.9 67.1----
2024-04-18 06:06 am W 4.1 7.0----30.09- 68.9 67.1----
2024-04-18 06:00 amWNW 4.1 5.1----30.08+0.03 68.7 67.1----
2024-04-18 05:54 amWSW 4.1 5.1----30.08- 68.9 67.1----
2024-04-18 05:48 amWSW 4.1 6.0----30.08- 69.1 67.1----
2024-04-18 05:42 amWSW 5.1 7.0----30.08- 69.3 67.1----
2024-04-18 05:36 amWSW 5.1 7.0----30.07- 69.4 67.1----
2024-04-18 05:30 am W 4.1 6.0----30.07- 69.4 67.1----
2024-04-18 05:24 am W 2.9 7.0----30.07- 69.6 67.3----
2024-04-18 05:18 am W 6.0 8.9----30.07- 69.8 67.3----
2024-04-18 05:12 amWSW 5.1 9.9----30.07- 70.0 67.3----
2024-04-18 05:06 amWSW 6.0 9.9----30.07- 70.0 67.5----
2024-04-18 05:00 am SW 6.0 9.9----30.07+0.01 70.0 67.6----
2024-04-18 04:54 am SW 6.0 8.0----30.07- 70.0 67.6----
2024-04-18 04:48 amWSW 5.1 8.9----30.07- 70.0 67.6----
2024-04-18 04:42 amWSW 6.0 9.9----30.07- 70.0 67.6----
2024-04-18 04:36 am W 6.0 11.1----30.07- 70.0 67.6----
2024-04-18 04:30 am W 8.9 14.0----30.07- 70.2 67.6----
2024-04-18 04:24 amWSW 6.0 12.0----30.07- 70.2 67.6----
2024-04-18 04:18 amWSW 8.9 15.0----30.05- 70.2 67.5----
2024-04-18 04:12 amSSW 9.9 13.0----30.03- 70.2 67.5----
2024-04-18 04:06 am SW 9.9 14.0----30.04- 70.3 67.5----
2024-04-18 04:00 am SW 8.9 12.0----30.04-0.04 70.2 67.5----
2024-04-18 03:54 am SW 12.0 18.1----30.05- 70.3 67.6----
2024-04-18 03:48 am SW 7.0 13.0----30.05- 70.3 67.8----
2024-04-18 03:42 amWSW 8.0 13.0----30.06- 70.2 67.8----
2024-04-18 03:36 am SW 8.0 12.0----30.05- 70.2 67.8----
2024-04-18 03:30 am SW 8.0 14.0----30.06- 70.3 67.8----
2024-04-18 03:24 amWSW 9.9 14.0----30.06- 70.3 67.8----
2024-04-18 03:18 amWSW 8.9 12.0----30.06- 70.3 67.8----
2024-04-18 03:12 amWSW 9.9 14.0----30.06- 70.3 67.8----
2024-04-18 03:06 amWSW 8.0 13.0----30.06- 70.3 67.8----
2024-04-18 03:00 am SW 8.0 12.0----30.06-0.05 70.3 67.8----
2024-04-18 02:54 am SW 9.9 17.1----30.05- 70.2 67.6----
2024-04-18 02:48 am SW 12.0 15.9----30.05- 70.2 67.8----
2024-04-18 02:42 am SW 9.9 18.1----30.06- 70.3 67.8----
2024-04-18 02:36 am SW 11.1 20.0----30.06- 70.2 67.8----
2024-04-18 02:30 am SW 14.0 20.0----30.06- 70.2 67.8----
2024-04-18 02:24 am SW 13.0 18.1----30.06- 69.8 67.8----
2024-04-18 02:18 am SW 11.1 15.9----30.05- 69.8 67.8----
2024-04-18 02:12 amSSW 12.0 17.1----30.06- 69.6 67.8----
2024-04-18 02:06 am SW 8.9 15.9----30.06- 69.6 67.8----
2024-04-18 02:00 am SW 9.9 17.1----30.06-0.05 69.8 67.8----
2024-04-18 01:54 am SW 8.0 14.0----30.07- 69.8 67.8----
2024-04-18 01:48 am SW 12.0 17.1----30.07- 69.6 67.8----
2024-04-18 01:42 am SW 11.1 18.1----30.07- 69.6 67.8----
2024-04-18 01:36 amSSW 11.1 15.0----30.06- 69.6 67.8----
2024-04-18 01:30 amSSW 9.9 15.9----30.07- 69.6 67.8----
2024-04-18 01:24 am SW 11.1 15.0----30.08- 69.6 68.0----
2024-04-18 01:18 am SW 9.9 15.0----30.08- 69.6 68.0----
2024-04-18 01:12 am SW 9.9 15.0----30.08- 69.6 68.0----
2024-04-18 01:06 amSSW 8.9 13.0----30.08- 69.4 67.8----
2024-04-18 01:00 amSSW 11.1 17.1----30.08-0.06 69.4 67.8----
2024-04-18 12:54 amSSW 9.9 17.1----30.08- 69.4 68.0----
2024-04-18 12:48 amSSW 8.9 17.1----30.09- 69.4 68.0----
2024-04-18 12:42 amSSW 12.0 18.1----30.09- 69.3 68.0----
2024-04-18 12:36 amSSW 13.0 17.1----30.08- 69.3 68.0----
2024-04-18 12:30 amSSW 8.9 15.0----30.09- 69.4 68.0----
2024-04-18 12:24 amSSW 9.9 13.0----30.10- 69.4 68.2----
2024-04-18 12:18 am SW 9.9 14.0----30.10- 69.3 68.2----
2024-04-18 12:12 amSSW 12.0 15.9----30.10- 69.3 68.2----
2024-04-18 12:06 amSSW 9.9 15.0----30.10- 69.3 68.2----
2024-04-18 12:00 amSSW 11.1 14.0----30.10-0.04 69.3 68.2----
2024-04-17 11:54 pmSSW 11.1 15.0----30.10- 69.1 68.2----
2024-04-17 11:48 pmSSW 8.0 14.0----30.11- 69.3 68.2----
2024-04-17 11:42 pm SW 8.0 13.0----30.11- 69.3 68.2----
2024-04-17 11:36 pmSSW 11.1 14.0----30.11- 69.1 68.2----
2024-04-17 11:30 pmSSW 8.0 12.0----30.11- 69.3 68.2----
2024-04-17 11:24 pm SW 8.0 12.0----30.12- 69.4 68.2----
2024-04-17 11:18 pm SW 6.0 11.1----30.12- 69.4 68.2----
2024-04-17 11:12 pmSSW 8.9 11.1----30.11- 69.3 68.2----
2024-04-17 11:06 pm S 9.9 11.1----30.11- 69.3 68.2----
2024-04-17 11:00 pm S 8.9 11.1----30.11-0.01 69.3 68.2----
2024-04-17 10:54 pm S 9.9 11.1----30.11- 69.3 68.2----